This is the latest recevied weather packets stored in our database for station/object W0AKY-13. If no packets are shown the sender has not sent any weather packets the latest 10 day(s).
| Time | Temp. | Humidity | Pressure | Rain* | Wind** | Luminosity | Snow |
|---|---|---|---|---|---|---|---|
| 1788193603 | 30° C | 67% | 1015.5 hPa | 0 mm | - | 487 W/m² | - |
| 1788193302 | 30° C | 68% | 1015.6 hPa | 0 mm | - | 467 W/m² | - |
| 1788192998 | 29.44° C | 70% | 1015.5 hPa | 0 mm | - | 478 W/m² | - |
| 1788192695 | 28.89° C | 73% | 1015.6 hPa | 0 mm | - | 393 W/m² | - |
| 1788192393 | 28.33° C | 73% | 1015.7 hPa | 0 mm | - | 444 W/m² | - |
| 1788192088 | 28.33° C | 72% | 1015.5 hPa | 0 mm | - | 215 W/m² | - |
| 1788191788 | 28.33° C | 75% | 1015.5 hPa | 0 mm | - | 207 W/m² | - |
| 1788191484 | 28.33° C | 72% | 1015.2 hPa | 0 mm | - | 232 W/m² | - |
| 1788191179 | 28.89° C | 74% | 1015.1 hPa | 0 mm | - | 131 W/m² | - |
| 1788190874 | 28.89° C | 75% | 1014.5 hPa | 0 mm | - | 152 W/m² | - |
| 1788190573 | 28.89° C | 75% | 1014.5 hPa | 0 mm | - | 174 W/m² | - |
| 1788190270 | 28.89° C | 74% | 1014.4 hPa | 0 mm | - | 143 W/m² | - |
| 1788189965 | 28.89° C | 76% | 1014.1 hPa | 0 mm | - | 349 W/m² | - |
| 1788189661 | 28.33° C | 75% | 1013.5 hPa | 0 mm | - | 415 W/m² | - |
| 1788189360 | 28.89° C | 76% | 1013.4 hPa | 0 mm | - | 133 W/m² | - |
| 1788189055 | 27.78° C | 77% | 1013.8 hPa | 0 mm | - | 340 W/m² | - |
| 1788188750 | 27.78° C | 78% | 1013.6 hPa | 0 mm | - | 118 W/m² | - |
| 1788188447 | 27.78° C | 77% | 1013.5 hPa | 0 mm | - | 78 W/m² | - |
| 1788188146 | 27.78° C | 78% | 1013.8 hPa | 0 mm | - | 111 W/m² | - |
| 1788187860 | 27.78° C | 78% | 1014 hPa | 0 mm | - | 96 W/m² | - |
| 1788187538 | 27.78° C | 78% | 1014.2 hPa | 0 mm | - | 89 W/m² | - |
| 1788187233 | 27.78° C | 78% | 1014.2 hPa | 0 mm | - | 86 W/m² | - |
| 1788186927 | 27.78° C | 79% | 1013.9 hPa | 0 mm | - | 83 W/m² | - |
| 1788186623 | 27.78° C | 77% | 1014.1 hPa | 0 mm | - | 87 W/m² | - |
| 1788186320 | 27.22° C | 78% | 1014 hPa | 0 mm | - | 97 W/m² | - |
* Rain latest hour (hover to see other rain measurements)
** Current wind speed in m/s (hover to see current wind gust speed)